This is the latest recevied weather packets stored in our database for station/object EA3AGY-13. If no packets are shown the sender has not sent any weather packets the latest 10 day(s).
| Time | Temp. | Humidity | Pressure | Rain* | Wind** | Luminosity | Snow |
|---|---|---|---|---|---|---|---|
| 1788474842 | 16.11° C | 45% | 1025.5 hPa | 0 mm | - | - | - |
| 1788472432 | 16.67° C | 48% | 1025.6 hPa | 0 mm | - | - | - |
| 1788471829 | 16.67° C | 44% | 1025.5 hPa | 0 mm | - | - | - |
| 1788471227 | 17.22° C | 42% | 1025.6 hPa | 0 mm | - | - | - |
| 1788468215 | 17.78° C | 37% | 1025.6 hPa | 0 mm | - | - | - |
| 1788467010 | 18.33° C | 36% | 1025.6 hPa | 0 mm | - | - | - |
| 1788463999 | 19.44° C | 39% | 1025.2 hPa | 0 mm | - | - | - |
| 1788463396 | 20° C | 36% | 1025.2 hPa | 0 mm | - | - | - |
| 1788462192 | 20.56° C | 33% | 1024.9 hPa | 0 mm | - | - | - |
| 1788460987 | 20° C | 33% | 1024.8 hPa | 0 mm | - | - | - |
| 1788456766 | 23.89° C | 18% | 1024.7 hPa | 0 mm | - | - | - |
| 1788456164 | 25° C | 15% | 1024.6 hPa | 0 mm | - | - | - |
| 1788455561 | 26.67° C | 15% | 1024.6 hPa | 0 mm | - | - | - |
| 1788453755 | 26.11° C | 12% | 1024.5 hPa | 0 mm | - | - | - |
| 1788450743 | -24.44° C | 12% | 1024.4 hPa | 0 mm | - | - | - |
| 1788450140 | -24.44° C | 14% | 1024.4 hPa | 0 mm | - | - | - |
| 1788446527 | -26.67° C | 15% | 1024.3 hPa | 0 mm | - | - | - |
| 1788445924 | -27.22° C | 16% | 1024.4 hPa | 0 mm | - | - | - |
| 1788444719 | -28.33° C | 20% | 1024.5 hPa | 0 mm | - | - | - |
| 1788444117 | -28.33° C | 21% | 1024.5 hPa | 0 mm | - | - | - |
| 1788443514 | 27.78° C | 20% | 1024.5 hPa | 0 mm | - | - | - |
| 1788441105 | 26.67° C | 25% | 1024.7 hPa | 0 mm | - | - | - |
| 1788439298 | 25.56° C | 26% | 1024.7 hPa | 0 mm | - | - | - |
| 1788438696 | 25.56° C | 26% | 1024.7 hPa | 0 mm | - | - | - |
| 1788436286 | 25° C | 29% | 1024.9 hPa | 0 mm | - | - | - |
* Rain since midnight (hover to see other rain measurements)
** Current wind speed in m/s (hover to see current wind gust speed)